User: anonymous   Login
Location: Unspecified
(0.0000°N, 0.0000°E)
Time: 01:28:14
(UTC+00:00)
Language:

SAUDISAT 3 - Orbit

View from above orbital plane
View from above orbital plane
View from above satellite
View from above satellite

Ground track
Ground track

The orbit data is extracted from the following two-line orbital elements,

1 31118U 07012B   17266.56347094  .00000020  00000-0  11189-4 0  9990
2 31118  97.7377 254.8210 0014456 319.9057  40.1074 14.69069401559456
Epoch (UTC): 23 September 2017 13:31:23
Eccentricity: 0.0014456
inclination: 97.7377°
perigee height: 654 km
apogee height: 674 km
right ascension of ascending node: 254.8210°
argument of perigee: 319.9057°
revolutions per day: 14.69069401
mean anomaly at epoch: 40.1074°
orbit number at epoch: 55945

The dashed part of the orbit path shows where the satellite is in the earth's shadow,  

DLR